Regional Weather Roundup
Issued by NWS

Home | Current Version | Previous Version | Text Only | Print | Product List | Glossary Off
Versions: 1 2 3 4 5 6 7 8 9 10 11 12 13 14 15 16 17 18 19 20 21 22 23 24 25 26 27 28 29 30 31 32 33 34 35 36 37 38 39 40 41 42 43 44 45 46 47 48 49 50

000
ASUS45 KCYS 031810
RWRWY

WYOMING REGIONAL WEATHER ROUNDUP
NATIONAL WEATHER SERVICE CHEYENNE WY
1200 PM MDT FRI JUL 03 2015

NOTE:  "FAIR" INDICATES FEW OR NO CLOUDS BELOW 12,000 FEET
WITH NO SIGNIFICANT WEATHER AND/OR OBSTRUCTIONS TO VISIBILITY.

WYZ001-031900-
YELLOWSTONE NATIONAL PARK

CITY           SKY/WX    TMP DP  RH WIND       PRES   REMARKS
LK YELLOWSTONE   N/A     72  53  51 VRB3      30.27F
6HR MIN TEMP:  43; 6HR MAX TEMP:  72;

W YELLOWSTONE  NOT AVBL

$$
WYZ002>013-054>058-071-098>099-031900-
NORTHERN WYOMING

CITY           SKY/WX    TMP DP  RH WIND       PRES   REMARKS
JACKSON        FAIR      75  52  43 SW5       30.18F
CODY           FAIR      81  52  36 E8        30.07F
GREYBULL       FAIR      85  51  31 S9        30.00F
6HR MIN TEMP:  62; 6HR MAX TEMP:  85;

WORLAND        FAIR      86  51  29 VRB3      30.02F
6HR MIN TEMP:  60; 6HR MAX TEMP:  87;

SHERIDAN       FAIR      84  52  33 NE7       30.04F
6HR MIN TEMP:  52; 6HR MAX TEMP:  84;

BUFFALO        FAIR      80  41  24 VRB3      30.11F
6HR MIN TEMP:  56; 6HR MAX TEMP:  81;

GILLETTE       FAIR      81  51  35 VRB3      30.08S
6HR MIN TEMP:  55; 6HR MAX TEMP:  81;

HULETT         FAIR      77  55  47 S6        30.10F
NEWCASTLE      FAIR      73  54  49 MISG      30.11F

$$
WYZ014>020-022>026-101>103-031900-
CENTRAL WYOMING

CITY           SKY/WX    TMP DP  RH WIND       PRES   REMARKS
BIG PINEY      FAIR      80  48  32 S9        30.24F
6HR MIN TEMP:  48; 6HR MAX TEMP:  80;

PINEDALE       FAIR      77  43  29 SW7       30.26F
DUBOIS         FAIR      79  37  22 W16G25    30.21F
LANDER         FAIR      78  56  46 N9        30.12F
6HR MIN TEMP:  58; 6HR MAX TEMP:  80;

RIVERTON       FAIR      79  53  40 SE8       30.13F
6HR MIN TEMP:  59; 6HR MAX TEMP:  79;

CASPER         FAIR      82  52  35 SW7       30.12F
6HR MIN TEMP:  52; 6HR MAX TEMP:  82;

DOUGLAS        FAIR      80  54  40 MISG      30.12S
6HR MIN TEMP:  55; 6HR MAX TEMP:  80;


$$
WYZ021-027>030-104>119-031900-
SOUTHERN WYOMING

CITY           SKY/WX    TMP DP  RH WIND       PRES   REMARKS
EVANSTON       FAIR      81  36  19 CALM      30.26F
6HR MIN TEMP:  56; 6HR MAX TEMP:  82;

KEMMERER       FAIR      79  43  27 SE8       30.28S
FORT BRIDGER   CLEAR     81  45  28 SE6       30.29S
ROCK SPRINGS   FAIR      78  47  33 E6        30.24F
6HR MIN TEMP:  55; 6HR MAX TEMP:  78;

DIXON          FAIR      81  41  24 CALM      30.23F
RAWLINS        FAIR      74  50  42 VRB5      30.25S
6HR MIN TEMP:  53; 6HR MAX TEMP:  75;

SARATOGA       FAIR      77  48  36 N5        30.27S
LARAMIE        FAIR      76  43  30 VRB5      30.26S
6HR MIN TEMP:  47; 6HR MAX TEMP:  76;

CHEYENNE       FAIR      73  55  53 SW8       30.22S
6HR MIN TEMP:  55; 6HR MAX TEMP:  74;

TORRINGTON     FAIR      79  57  46 MISG      30.10F
6HR MIN TEMP:  59; 6HR MAX TEMP:  79;

PINE BLUFFS    FAIR      75  54  46 S7        30.18S

$$


USA.gov is the U.S. government's official web portal to all federal, state and local government web resources and services.